Hans de Kruijff

Log

Date Distance Time Pace Comments Action
08/06/21 6,015m 24:12.1 2:00.7 View workout
08/05/21 12,000m 47:48.8 1:59.5 View workout
08/05/21 100m 0:31.5 2:37.5 View workout
08/03/21 10,000m 39:36.9 1:58.8 View workout
08/02/21 7,642m 30:13.8 1:58.6

whats with the bpm on pm5?

View workout
08/01/21 1,530m 6:11.8 2:01.5 View workout
08/01/21 3,695m 14:43.4 1:59.5 View workout
07/31/21 14,118m 57:25.5 2:02.0 View workout
07/29/21 1,000m 3:34.8 1:47.4 View workout
07/29/21 4,023m 15:41.8 1:57.0 View workout
07/28/21 5,000m 19:21.1 1:56.1 View workout
07/28/21 5,023m 19:32.9 1:56.7 View workout
07/27/21 2,000m 7:16.7 1:49.1 View workout
07/27/21 2,645m 10:00.0 1:53.4 View workout
07/27/21 5,280m 20:00.0 1:53.6 View workout
07/25/21 6,000m 23:40.8 1:58.4 View workout
07/25/21 7,674m 30:00.0 1:57.2 View workout
07/24/21 10,000m 39:54.3 1:59.7 View workout
07/24/21 314m 1:00.0 1:35.5 View workout
07/24/21 1,000m 3:23.2 1:41.6 View workout